Date String (YYYY-MM-DD hh:mm:ss) UTC,Instrument flags,Ambient pressure (hPa),Sample flow (lpm),Bypass flow (lpm),Sample temperature (°C),Ambient temperature (°C),ASC tube jacket temperature (°C),LED temperature (°C),Box temperature (°C),Sample RH (%),Span deviation,Mass concentration (μg/m³),Mass concentration (μg/m³),Mass concentration (μg/m³)
DateTimeUTC,F1_M11,P_M11,Q1_M11,Q2_M11,T1_M11,T2_M11,T3_M11,T4_M11,T5_M11,U1_M11,ZSPAN_M11,X0_M11,X2_M11,X1_M11
2022-05-25 03:00:00,,0826.6,4.99,0.00,28.1,27.0,00.0,37.1,29.9,18.1,0000.0,0007.80,0004.65,0004.37
2022-05-25 03:01:00,,0826.6,4.99,0.00,28.1,27.0,00.0,37.1,29.9,18.1,0000.0,0007.14,0004.61,0004.36
2022-05-25 03:02:00,,0826.6,4.99,0.00,28.1,27.0,00.0,37.1,29.9,18.0,0000.0,0006.97,0004.58,0004.34
2022-05-25 03:03:00,,0826.6,5.01,0.00,28.1,27.0,00.0,37.1,29.9,18.4,0000.0,0006.86,0004.56,0004.33
2022-05-25 03:04:00,,0826.7,5.01,0.00,28.1,27.0,00.0,37.1,29.9,18.8,0000.0,0006.80,0004.55,0004.33
2022-05-25 03:05:00,,0826.7,5.00,0.00,28.1,27.0,00.0,37.1,29.9,19.1,0000.0,0006.81,0004.56,0004.34
2022-05-25 03:06:00,,0826.7,5.00,0.00,28.1,27.0,00.0,37.1,29.9,19.4,0000.0,0006.89,0004.61,0004.37
2022-05-25 03:07:00,,0826.7,5.00,0.00,28.1,27.0,00.0,37.1,29.9,19.7,0000.0,0007.03,0004.66,0004.41
2022-05-25 03:08:00,,0826.7,4.99,0.00,28.1,26.9,00.0,37.0,29.8,19.9,0000.0,0007.08,0004.70,0004.45
2022-05-25 03:09:00,,0826.7,5.00,0.00,28.0,26.9,00.0,37.0,29.8,20.1,0000.0,0007.15,0004.75,0004.49
2022-05-25 03:10:00,,0826.7,5.00,0.00,28.0,26.9,00.0,37.0,29.8,20.2,0000.0,0007.20,0004.79,0004.54
2022-05-25 03:11:00,,0826.7,5.00,0.00,28.0,26.9,00.0,37.0,29.8,20.4,0000.0,0007.26,0004.83,0004.59
2022-05-25 03:12:00,,0826.7,5.01,0.00,28.0,26.8,00.0,37.0,29.8,21.6,0000.0,0007.53,0004.89,0004.63
2022-05-25 03:13:00,,0826.7,5.01,0.00,28.0,26.8,00.0,37.0,29.8,21.9,0000.0,0007.68,0004.95,0004.68
2022-05-25 03:14:00,,0826.8,5.00,0.00,28.0,26.8,00.0,37.0,29.8,21.1,0000.0,0007.74,0005.01,0004.72
2022-05-25 03:15:00,,0826.8,4.99,0.00,28.0,26.8,00.0,37.0,29.7,20.9,0000.0,0007.77,0005.03,0004.73
2022-05-25 03:16:00,,0826.8,5.01,0.00,28.0,26.7,00.0,37.0,29.7,20.7,0001.0,0007.76,0005.03,0004.72
2022-05-25 03:17:00,,0826.8,5.00,0.00,28.0,26.7,00.0,37.0,29.7,20.8,0000.0,0007.62,0004.96,0004.69
2022-05-25 03:18:00,,0826.8,5.00,0.00,27.9,26.7,00.0,37.0,29.7,20.8,0000.0,0007.54,0004.92,0004.65
2022-05-25 03:19:00,,0826.8,4.99,0.00,27.9,26.7,00.0,36.9,29.7,20.8,0000.0,0007.63,0004.91,0004.62
2022-05-25 03:20:00,,0826.8,4.99,0.00,27.9,26.7,00.0,36.9,29.7,20.8,0000.0,0007.71,0004.91,0004.59
2022-05-25 03:21:00,,0826.8,5.01,0.00,27.9,26.7,00.0,36.9,29.7,20.8,0000.0,0007.68,0004.87,0004.56
2022-05-25 03:22:00,,0826.9,5.01,0.00,27.9,26.6,00.0,36.9,29.7,20.8,0000.0,0007.59,0004.82,0004.53
2022-05-25 03:23:00,,0826.8,5.00,0.00,27.9,26.6,00.0,36.9,29.7,20.8,0000.0,0007.41,0004.77,0004.50
2022-05-25 03:24:00,,0826.8,5.00,0.00,27.9,26.6,00.0,36.9,29.7,20.7,0000.0,0007.25,0004.72,0004.46
2022-05-25 03:25:00,,0826.9,5.00,0.00,27.9,26.6,00.0,36.9,29.6,20.7,0000.0,0007.18,0004.68,0004.42
2022-05-25 03:26:00,,0826.9,5.00,0.00,27.8,26.6,00.0,36.9,29.6,20.6,0000.0,0007.15,0004.66,0004.39
2022-05-25 03:27:00,,0826.9,5.00,0.00,27.8,26.6,00.0,36.9,29.6,20.5,0000.0,0007.10,0004.63,0004.38
2022-05-25 03:28:00,,0826.9,4.99,0.00,27.8,26.5,00.0,36.9,29.6,20.5,0000.0,0007.14,0004.64,0004.38
2022-05-25 03:29:00,,0826.9,5.00,0.00,27.8,26.5,00.0,36.9,29.6,20.5,0000.0,0007.21,0004.67,0004.40
2022-05-25 03:30:00,,0826.9,5.00,0.00,27.8,26.5,00.0,36.8,29.6,20.5,0000.0,0007.12,0004.68,0004.42
2022-05-25 03:31:00,,0826.9,4.99,0.00,27.8,26.5,00.0,36.8,29.6,20.6,0000.0,0006.96,0004.66,0004.42
2022-05-25 03:32:00,,0826.9,5.00,0.00,27.8,26.5,00.0,36.8,29.6,20.7,0000.0,0007.03,0004.70,0004.45
2022-05-25 03:33:00,,0826.9,4.99,0.00,27.8,26.5,00.0,36.8,29.6,20.8,0000.0,0007.34,0004.77,0004.48
2022-05-25 03:34:00,,0826.9,5.00,0.00,27.8,26.5,00.0,36.8,29.6,20.9,0000.0,0007.31,0004.80,0004.52
2022-05-25 03:35:00,,0826.9,4.99,0.00,27.8,26.5,00.0,36.8,29.6,21.0,0000.0,0007.41,0004.88,0004.58
2022-05-25 03:36:00,,0826.9,5.01,0.00,27.8,26.4,00.0,36.8,29.5,21.1,0000.0,0007.57,0004.99,0004.66
2022-05-25 03:37:00,,0826.9,5.00,0.00,27.7,26.4,00.0,36.8,29.5,21.1,-000.6,0007.68,0005.07,0004.73
2022-05-25 03:38:00,,0826.8,5.00,0.00,27.7,26.4,00.0,36.8,29.5,21.1,-000.8,0007.79,0005.15,0004.80
2022-05-25 03:39:00,,0826.8,4.99,0.00,27.7,26.4,00.0,36.8,29.5,21.0,-000.8,0007.80,0005.18,0004.85
2022-05-25 03:40:00,,0826.9,5.01,0.00,27.7,26.4,00.0,36.7,29.5,20.9,-001.0,0007.80,0005.18,0004.85
2022-05-25 03:41:00,,0826.9,5.01,0.00,27.7,26.4,00.0,36.7,29.5,20.7,-001.1,0007.72,0005.15,0004.84
2022-05-25 03:42:00,,0826.9,5.00,0.00,27.7,26.4,00.0,36.7,29.5,20.6,-000.7,0007.72,0005.16,0004.83
2022-05-25 03:43:00,,0826.9,5.00,0.00,27.7,26.3,00.0,36.7,29.4,20.5,-000.7,0007.66,0005.11,0004.78
2022-05-25 03:44:00,,0826.9,5.01,0.00,27.7,26.3,00.0,36.7,29.4,20.5,-000.3,0007.51,0005.04,0004.74
2022-05-25 03:45:00,,0827.0,5.01,0.00,27.6,26.3,00.0,36.7,29.4,20.5,-000.1,0007.53,0005.01,0004.68
2022-05-25 03:46:00,,0826.9,5.00,0.00,27.6,26.3,00.0,36.7,29.4,20.5,-000.1,0007.51,0004.95,0004.61
2022-05-25 03:47:00,,0827.0,5.00,0.00,27.6,26.2,00.0,36.7,29.4,20.5,-000.0,0007.40,0004.85,0004.54
2022-05-25 03:48:00,,0826.9,4.99,0.00,27.6,26.2,00.0,36.6,29.4,20.5,0000.0,0007.30,0004.77,0004.47
2022-05-25 03:49:00,,0827.0,5.00,0.00,27.6,26.2,00.0,36.6,29.4,20.4,0000.0,0007.10,0004.68,0004.40
2022-05-25 03:50:00,,0827.0,5.00,0.00,27.6,26.2,00.0,36.6,29.3,20.4,0000.0,0006.94,0004.60,0004.33
2022-05-25 03:51:00,,0827.0,5.00,0.00,27.6,26.2,00.0,36.6,29.3,20.4,0000.0,0006.88,0004.56,0004.29
2022-05-25 03:52:00,,0826.9,4.99,0.00,27.6,26.2,00.0,36.6,29.3,20.3,0000.0,0006.93,0004.54,0004.25
2022-05-25 03:53:00,,0826.9,5.01,0.00,27.5,26.2,00.0,36.6,29.3,20.1,0000.0,0006.75,0004.47,0004.21
2022-05-25 03:54:00,,0826.9,4.98,0.00,27.5,26.1,00.0,36.6,29.3,19.8,0000.0,0006.65,0004.42,0004.16
2022-05-25 03:55:00,,0827.0,5.01,0.00,27.5,26.1,00.0,36.6,29.3,19.8,0000.0,0006.64,0004.37,0004.10
2022-05-25 03:56:00,,0826.9,4.99,0.00,27.5,26.1,00.0,36.5,29.3,19.8,0000.0,0006.52,0004.30,0004.05
2022-05-25 03:57:00,,0826.9,5.01,0.00,27.5,26.1,00.0,36.5,29.3,19.9,0000.0,0006.45,0004.25,0003.99
2022-05-25 03:58:00,,0826.9,5.00,0.00,27.5,26.0,00.0,36.5,29.3,19.9,0000.0,0006.26,0004.19,0003.93
2022-05-25 03:59:00,,0826.9,5.00,0.00,27.5,26.0,00.0,36.5,29.2,19.7,0000.0,0006.22,0004.13,0003.86
